Regional Weather Roundup
Issued by NWS Northern Indiana

Current Version | Previous Version | Text Only | Print | Product List | Glossary On
Versions: 1 2 3 4 5 6 7 8 9 10 11 12 13 14 15 16 17 18 19 20 21 22 23 24 25 26 27 28 29 30 31 32 33 34 35 36 37 38 39 40 41 42 43 44 45 46 47 48 49 50
000
ASUS43 KIWX 252110
RWRIWX

KIWX WEATHER ROUNDUP
NATIONAL WEATHER SERVICE NORTHERN INDIANA
500 PM EDT SUN SEP 25 2016

NOTE: "FAIR" INDICATES FEW OR NO CLOUDS BELOW 12,000 FEET WITH NO
SIGNIFICANT WEATHER AND/OR OBSTRUCTIONS TO VISIBILITY.

* THESE STATIONS ARE NOT UNDER NWS QUALITY CONTROL. THEY ALSO MAY NOT
  REPORT WEATHER SUCH AS PRECIPITATION OR FOG.

INZ001>027-252200-
NORTHERN INDIANA

CITY           SKY/WX    TMP DP  RH WIND       PRES   REMARKS
GARY*          PTSUNNY   86  66  51 SE7       29.93F
VALPARAISO     MOSUNNY   84  64  50 S9        29.95F
MICHIGAN CITY* PTSUNNY   81  66  61 MISG      29.96F
LAPORTE*       MOSUNNY   87  64  47 SE8       29.97F
KNOX*          SUNNY     86  34  15 SE8       29.97F
SOUTH BEND     SUNNY     81  65  58 S13       29.98F
ELKHART*       SUNNY    N/A N/A N/A E7        30.01F
GOSHEN         SUNNY     82  62  50 SE12      30.01F
MONTICELLO*    PTSUNNY   84  59  42 S6        29.97F
LOGANSPORT*    MOSUNNY   86  63  45 S7        29.99F
ROCHESTER*     MOSUNNY   86  66  51 SE7       30.00F
WARSAW*        SUNNY     81  55  41 SE6       30.01F
ANGOLA*        SUNNY     79  61  53 SE9       30.04F
FORT WAYNE     PTSUNNY   82  63  52 E8        30.03F
HUNTINGTON*    MOSUNNY  N/A N/A N/A E6        30.01F
PERU/GRISSOM   MOSUNNY   85  66  52 SE9       29.99F
MARION*        MOSUNNY   83  62  48 S7        30.02F

$$
INZ028>050-252200-
CENTRAL INDIANA

CITY           SKY/WX    TMP DP  RH WIND       PRES   REMARKS
LAFAYETTE      MOSUNNY   87  66  49 S7        29.96F
MUNCIE*        SUNNY     86  61  42 S3        30.02F
INDIANAPOLIS   NOT AVBL

$$
MIZ043>046-050>051-056>058-064>065-071>073-077>080-252200-
SOUTHWEST LOWER MICHIGAN

CITY           SKY/WX    TMP DP  RH WIND       PRES   REMARKS
BATTLE CREEK   CLOUDY    76  58  53 SE8       30.04F
BENTON HARBOR  SUNNY     82  64  54 SE12      29.97F
COLDWATER*     SUNNY     76  56  49 SE10      30.04F
HILLSDALE*     PTSUNNY   75  46  35 SE9       30.06F
HOLLAND        MOSUNNY   77  62  59 SE15      29.98F
GRAND RAPIDS   PTSUNNY   74  57  55 SE8       30.02F
KALAMAZOO      SUNNY     78  58  49 VRB7      30.02F
STURGIS*       SUNNY     79  61  54 SE7       30.02F
THREE RIVERS*  FAIR      80  63  55 SE6       30.02F

$$
OHZ001>008-015>018-024>025-252200-
NORTHWEST OHIO

CITY           SKY/WX    TMP DP  RH WIND       PRES   REMARKS
WAUSEON*       FAIR      77  48  36 E9        30.07F
DEFIANCE       SUNNY     79  55  43 S6        30.06F
FINDLAY        SUNNY     82  47  29 NE7       30.06F
TOLEDO EXPRESS MOSUNNY   73  54  51 NE10      30.07F
TOLEDO METCALF SUNNY     72  54  53 E9        30.10F
LIMA           SUNNY     81  61  50 CALM      30.06F

$$
AND FOR LAKE MICHIGAN COASTAL AND OPEN LAKE BUOY OBSERVATIONS

STATION/POSITION TEMP    WIND        PRES    VSBY  WAVE
                 AIR SEA DIR/SP/G                  HT/PER
                 (F)     (DEG/KT/KT) (MB)    (MI)  (FT/S)
CALUMET HARBOR    85     170/  8/ 12 1012.9F
MICHIGAN CITY     83     130/ 10/ 12   N/A
BURNS HARBOR      85     170/  8/ 14 1013.9
SOUTH LAKE BUOY   73 72  130/ 16/ 19 1012.8F         3/ 5
4 MI NW BRIDGMAN  76 68  140/ 10/ 14 1014.1          1
MICHIGAN CITY     77 71  140/  6/  8   N/A           1

$$
&&



USA.gov is the U.S. government's official web portal to all federal, state and local government web resources and services.